Terminal Aerodrome Forecast
Issued by NWS

Current Version | Previous Version | Graphics & Text | Print | Product List | Glossary On
Versions: 1 2 3 4 5 6 7 8 9 10 11 12 13 14 15
000
FTUS41 KPBZ 212320
TAFMGW
TAF
KMGW 212320Z 2200/2224 VRB02KT P6SM SKC
     FM220900 00000KT 3SM BR SKC
      TEMPO 2209/2212 1SM BR
     FM221300 VRB03KT P6SM SKC=

USA.gov is the U.S. government's official web portal to all federal, state and local government web resources and services.